Temperature
15 14 14 14 13 13 13 12 11 11 11 11 11 11 11 11 11 12 11 11 11 11 11 12 12 13 13 13 13 14 14 14 14 14 15 15 15 15 15 15 15 15 15 15
15 15 15 14 14 13 13 12 12 12 12 12 12 12 12 12 12 12 12 12 12 12 12 12 12 12 12 12 13 13 13 14 14 14 14 15 15 15 15 15 15 15 15 15
16 15 15 15 13 13 13 12 12 12 12 12 12 12 12 12 12 12 12 12 12 12 12 12 12 11 11 12 12 12 13 13 13 13 14 14 14 14 14 14 15 15 15 15
16 16 15 14 14 13 13 13 13 13 13 12 12 12 13 12 12 13 13 13 12 12 12 12 12 12 12 12 12 12 12 12 12 12 13 13 13 13 13 13 14 14 14 14
17 16 15 14 14 14 14 14 14 14 14 13 13 15 15 13 13 13 13 13 13 12 12 12 12 12 12 12 12 11 11 11 12 12 12 12 12 12 12 12 12 13 13 13
16 17 16 16 14 13 14 15 14 13 14 14 15 17 15 13 13 13 13 13 13 13 13 13 12 12 12 12 12 11 11 11 11 12 12 12 12 12 12 12 12 12 12 12
16 17 16 15 13 13 15 15 14 13 13 13 14 14 13 13 13 13 13 14 13 13 13 13 13 13 13 12 12 11 11 11 11 11 11 12 12 12 12 12 12 11 12 12
16 16 16 14 13 15 16 14 13 13 13 13 13 13 13 13 13 14 14 14 14 14 13 13 13 13 13 12 12 11 11 11 11 11 11 11 12 12 12 12 11 11 11 11
16 16 14 13 14 13 13 13 13 13 12 12 12 13 13 13 13 13 14 14 14 14 14 14 13 13 13 12 12 11 11 11 11 11 11 11 11 11 11 11 11 11 11 11
15 15 14 13 13 12 12 13 12 12 12 12 12 13 13 13 13 13 14 14 15 15 14 14 14 13 13 13 12 12 11 11 11 11 11 11 11 11 11 11 10 10 10 10
16 15 14 13 13 13 12 12 12 12 12 12 12 12 12 13 13 13 14 14 14 14 15 15 14 14 14 13 13 12 12 11 11 11 11 10 10 10 10 10 10 10 10 10
17 16 15 15 13 13 12 12 12 12 12 12 12 12 12 12 12 13 14 14 14 15 15 15 15 14 14 14 13 13 12 12 11 11 11 10 10 10 10 10 10 10 10 10
15 14 14 14 13 13 12 12 12 12 12 12 12 12 12 12 12 13 14 14 15 15 15 15 15 15 14 14 14 13 12 12 11 11 11 10 10 10 9 9 9 9 9 10
13 13 13 13 13 12 12 12 12 12 12 12 12 12 12 12 13 13 14 15 15 15 16 16 15 15 15 15 14 13 12 12 11 11 10 10 10 10 10 9 9 9 9 9
13 13 14 13 13 12 12 12 12 12 12 12 12 12 12 12 13 13 14 15 15 15 15 16 16 15 15 15 14 13 12 12 11 11 11 10 10 10 10 9 9 9 9 9
13 12 13 13 13 12 12 12 12 12 12 12 12 12 12 13 13 13 14 15 15 15 16 16 16 16 15 15 14 13 13 12 11 11 11 10 10 10 10 10 10 9 9 9
13 13 13 13 13 12 12 12 12 12 12 12 12 12 12 12 12 13 14 14 15 15 16 16 16 16 15 15 14 13 13 12 12 11 11 11 10 10 10 10 10 10 9 9
14 14 13 13 13 13 12 12 12 12 11 11 12 12 12 12 12 13 13 14 14 14 15 15 16 16 15 15 14 14 13 12 12 11 11 10 10 10 10 10 10 9 9 9
13 13 13 13 13 12 12 12 11 11 11 11 12 12 12 12 12 12 13 13 13 14 15 15 16 16 15 15 15 14 13 12 12 11 11 11 10 10 10 10 10 9 9 9
13 13 13 13 12 12 12 11 11 11 11 11 11 11 11 11 12 12 12 12 13 14 15 15 15 15 15 15 15 14 13 12 12 11 11 11 10 10 10 10 10 9 9 9
13 13 13 13 12 12 12 11 11 11 11 11 11 11 11 11 12 12 12 12 12 13 14 15 15 15 15 15 15 14 13 13 12 12 11 11 11 10 10 10 10 10 9 9
13 13 13 13 12 12 12 11 11 11 11 11 11 11 11 12 11 12 12 12 13 13 14 14 15 15 15 15 15 14 13 13 12 12 11 11 11 10 10 10 10 9 9 9
13 13 13 12 12 12 12 11 11 11 11 11 11 11 11 11 11 12 12 12 12 13 13 14 14 15 15 15 14 14 14 13 12 12 11 11 11 10 10 10 10 10 9 9
12 12 12 12 12 12 12 12 12 11 12 12 12 12 12 12 12 11 12 12 12 13 13 13 14 14 14 14 14 14 13 13 13 12 12 11 11 11 10 10 10 10 10 9
12 12 12 12 12 12 12 12 11 12 12 12 12 12 12 12 12 12 12 12 12 12 13 13 13 14 14 14 14 14 13 13 13 13 12 12 11 11 10 10 10 10 10 10
11 12 12 12 12 12 12 12 12 12 12 12 12 12 12 12 12 12 12 12 12 12 12 13 13 13 13 14 14 14 13 13 13 13 13 12 12 11 11 11 10 10 10 10
11 11 12 12 12 12 12 12 12 12 12 12 12 12 12 12 12 12 12 12 12 12 12 12 13 13 13 13 14 14 13 13 13 13 13 12 12 12 11 11 11 11 10 10
Wind_Speed
8 6 5 9 10 11 10 6 4 5 6 10 14 13 13 14 15 16 16 15 14 13 13 12 12 11 10 9 8 7 7 7 6 5 5 4 3 1 1 2 4 5 6 6
5 3 3 7 10 9 8 6 5 5 5 10 10 10 12 14 14 14 15 15 14 14 13 13 12 11 10 10 9 9 9 9 7 7 6 5 4 3 2 2 3 4 6 6
3 2 3 3 6 5 5 5 5 5 7 11 10 11 12 13 13 13 13 13 13 13 12 12 11 11 11 10 10 10 10 9 9 8 7 7 6 5 4 3 2 2 3 3
2 3 1 3 1 1 2 3 4 5 7 8 8 6 6 10 11 11 11 11 11 11 10 10 10 10 10 10 11 11 11 10 9 8 8 8 8 7 6 5 4 3 3 3
2 2 3 3 3 2 1 1 3 5 7 8 8 0 7 13 12 11 10 9 9 9 9 9 9 9 9 10 11 11 11 10 10 9 9 8 8 8 7 6 5 5 5 5
3 2 2 4 5 2 3 1 1 3 6 8 8 5 8 13 13 11 9 8 8 8 9 9 9 8 9 10 10 10 10 10 9 9 9 9 8 8 7 6 6 6 6 7
3 2 2 5 6 4 3 3 2 2 5 7 7 7 9 11 10 9 8 8 8 7 8 8 7 7 8 9 9 8 8 8 9 9 9 8 8 8 7 7 7 7 7 7
4 4 3 9 7 5 2 3 1 2 4 6 7 7 9 9 10 9 9 8 8 7 7 6 6 6 7 7 6 5 6 7 8 8 8 7 8 8 8 8 8 8 8 8
4 0 4 8 5 2 1 2 0 2 4 6 7 8 9 9 9 9 9 8 7 7 6 5 5 5 6 5 4 4 5 6 6 7 7 8 8 8 8 8 7 7 7 7
5 6 6 7 6 5 5 3 1 3 4 5 6 8 9 9 9 9 9 8 8 7 6 5 5 3 3 3 3 4 5 6 6 6 7 7 7 7 7 8 8 7 7 7
6 5 7 10 10 8 6 4 3 2 3 4 6 7 8 8 9 9 8 8 7 7 7 7 6 4 2 2 2 3 4 5 5 6 6 6 7 6 7 8 7 7 6 6
6 9 8 10 13 11 8 6 4 2 3 3 5 7 8 8 9 9 9 8 8 8 8 8 7 5 3 2 2 3 4 5 5 5 5 5 5 6 7 6 8 10 11 9
1 7 7 6 11 12 9 6 4 2 3 4 5 6 7 8 8 9 9 9 9 9 8 8 6 5 3 1 2 1 2 3 3 4 4 4 5 5 5 5 6 10 13 13
5 8 8 8 10 11 9 7 4 3 2 3 4 5 7 8 8 9 9 10 10 9 8 7 6 4 3 1 2 1 1 2 2 3 3 4 5 5 5 5 5 6 9 12
10 9 7 9 10 11 9 7 6 4 3 3 3 5 7 8 9 9 9 10 9 8 7 6 5 4 3 1 3 2 2 2 2 3 3 3 4 4 4 5 5 5 5 6
13 9 8 10 12 11 10 9 7 5 4 3 4 5 7 8 9 9 9 9 9 8 7 7 6 5 3 1 3 3 2 2 1 2 2 3 3 4 4 4 5 5 5 5
17 15 13 13 13 12 11 9 7 5 4 4 4 5 7 8 8 8 9 9 8 6 6 7 7 6 3 1 3 3 3 4 4 2 2 2 2 3 3 3 4 4 5 6
17 15 14 13 12 12 11 9 7 6 5 4 4 5 6 7 8 9 10 9 7 5 5 7 7 6 2 1 3 3 4 4 3 2 2 2 2 2 2 3 3 3 3 4
15 14 13 12 11 10 10 9 8 7 5 4 5 5 5 6 7 8 9 8 7 6 7 9 9 6 1 1 3 4 4 4 4 3 3 3 2 2 2 2 2 2 2 2
15 14 13 11 10 9 9 8 7 6 5 5 5 5 5 6 6 8 8 7 5 6 9 10 8 5 2 2 4 4 4 4 4 4 3 3 3 2 2 2 2 2 2 2
15 14 13 12 11 10 9 8 8 7 6 6 6 5 5 6 6 7 7 6 5 8 9 9 6 4 2 1 5 4 4 5 5 4 4 4 3 3 3 3 3 2 2 2
15 14 14 13 12 10 10 9 8 7 7 6 6 6 6 6 6 6 6 5 7 9 8 6 5 5 5 4 4 5 5 5 5 4 4 4 4 4 4 3 3 3 2 2
14 14 14 13 13 12 11 10 9 8 8 8 7 7 6 6 5 6 6 5 6 10 9 6 7 9 8 5 5 5 6 6 6 5 5 5 5 4 4 4 3 3 3 3
11 13 13 13 12 12 12 11 10 9 8 8 7 7 7 6 5 5 5 6 7 9 7 6 8 9 8 5 5 6 6 6 6 6 5 5 5 5 5 4 4 4 4 4
7 10 12 13 12 11 12 11 11 10 9 8 9 8 7 6 6 6 6 7 7 8 7 6 6 8 5 4 5 6 6 6 6 6 6 6 5 5 5 5 5 5 5 5
4 6 8 11 11 10 9 9 9 9 9 8 8 7 7 6 7 6 6 7 8 7 7 6 5 5 4 4 4 5 6 6 6 6 7 6 6 6 6 6 7 6 5 5
3 4 5 7 9 9 9 9 10 10 10 9 9 8 7 7 7 7 7 6 6 6 5 5 5 5 4 4 4 5 6 6 6 7 7 7 6 6 6 7 6 6 5 6
Wind_Direction
102 98 59 41 30 35 45 39 31 3 10 358 349 351 0 9 15 25 30 32 31 29 30 29 33 33 35 38 43 54 61 59 51 46 43 40 36 5 302 278 259 248 239 234
135 141 68 51 36 34 36 27 21 20 29 352 345 2 14 18 19 23 28 30 32 33 33 35 36 38 42 46 49 55 57 53 46 46 44 35 29 22 8 326 285 263 250 241
139 166 215 59 30 26 32 21 4 8 346 335 351 5 11 12 15 22 26 27 29 32 34 35 38 40 44 48 54 56 56 51 46 44 42 36 34 33 24 10 344 303 278 263
163 193 164 88 90 323 350 20 6 352 345 341 335 338 18 20 13 16 18 22 25 27 31 34 39 43 49 51 52 53 52 49 45 42 43 40 38 33 25 19 17 2 348 332
209 170 140 176 193 225 258 41 4 352 357 352 331 248 57 24 10 7 7 13 19 20 26 34 35 36 47 53 53 51 46 43 41 40 39 37 35 32 27 27 30 26 21 12
209 221 198 149 142 184 239 171 72 351 359 358 358 47 27 0 356 360 3 7 10 17 27 33 30 31 44 51 51 48 44 44 43 42 39 37 35 32 30 35 38 39 37 29
218 228 169 144 149 183 219 103 94 360 360 2 12 4 339 342 355 360 2 3 3 14 25 25 23 33 46 50 49 45 44 44 42 40 40 36 35 36 37 39 43 45 45 39
213 220 197 153 168 201 81 97 112 360 358 355 348 344 347 352 358 0 2 2 359 3 15 20 21 32 49 48 43 43 44 44 42 39 36 35 37 37 38 38 40 39 41 40
225 233 96 169 189 179 175 185 176 346 347 340 338 346 349 352 355 357 356 356 352 348 351 9 24 23 37 42 35 39 43 42 39 43 43 38 37 36 37 35 36 33 33 31
231 218 193 192 199 200 208 219 261 313 324 328 334 341 346 348 350 352 353 352 345 340 342 354 0 360 9 19 11 22 35 35 37 41 45 48 43 40 40 34 32 33 29 25
224 193 190 207 206 200 198 213 240 280 310 325 331 339 343 343 347 346 345 345 341 338 335 332 334 331 329 334 338 8 32 40 42 48 48 52 60 48 44 48 32 21 20 20
210 191 191 195 194 193 195 204 221 262 306 330 334 336 340 342 344 341 340 340 340 337 329 327 329 327 319 291 303 348 26 38 40 47 49 49 64 87 71 53 45 38 29 19
176 171 172 158 175 184 193 198 205 243 297 322 333 337 336 337 339 339 340 342 340 335 329 326 326 326 329 272 256 326 28 48 49 44 50 52 53 60 87 106 99 64 48 43
167 162 171 174 176 182 186 188 198 228 269 302 318 328 332 334 338 342 344 341 334 330 330 331 330 336 339 268 210 211 82 79 64 62 54 57 58 58 59 63 75 79 72 57
189 192 184 173 173 178 183 188 202 223 249 283 306 320 331 335 337 338 339 337 333 333 342 343 343 352 351 271 202 182 149 117 94 79 76 74 70 69 70 70 69 69 74 77
186 190 184 179 180 182 188 197 211 223 239 272 299 319 328 328 327 331 338 341 337 340 345 345 349 351 343 254 185 172 146 96 94 118 111 99 86 82 80 77 73 66 56 44
181 189 190 190 189 191 196 204 215 226 237 258 290 313 318 321 327 338 342 340 333 328 336 345 346 341 327 237 188 175 161 153 176 171 113 104 96 91 90 90 83 75 64 45
197 196 195 195 193 195 200 205 212 223 237 255 281 295 307 318 327 333 334 333 332 335 356 354 347 332 316 209 188 176 169 167 170 148 140 143 127 119 108 105 101 97 97 90
200 199 200 201 200 200 203 206 211 220 229 240 259 282 300 308 317 323 327 328 333 341 349 346 331 323 329 166 177 184 178 173 174 167 160 155 185 164 155 141 127 114 109 105
199 199 199 197 197 202 205 207 210 215 222 232 250 270 288 301 313 318 321 320 332 339 330 330 324 328 325 174 197 192 184 185 186 181 182 192 195 189 182 180 180 163 145 130
198 196 196 195 195 200 206 206 207 215 218 223 241 262 284 298 305 309 313 316 338 344 328 312 313 323 312 237 215 204 194 193 194 196 194 199 203 204 203 196 195 196 188 168
200 198 198 198 198 201 204 207 210 215 219 224 235 253 271 285 296 302 299 303 323 333 323 315 319 340 328 280 222 207 202 200 200 199 201 205 208 210 210 208 207 201 200 188
202 202 202 202 204 206 203 206 210 215 222 228 236 246 260 277 289 294 303 321 325 329 319 313 332 325 306 256 223 209 205 204 203 202 203 206 208 211 210 209 210 203 201 191
206 206 206 206 207 207 208 209 212 216 223 231 238 245 255 265 272 269 284 296 302 311 310 323 323 315 287 245 227 216 209 205 204 206 203 205 207 209 208 208 207 205 200 193
215 211 207 204 206 211 217 214 213 216 223 231 238 238 242 248 260 279 291 299 308 307 311 316 312 305 281 252 235 224 215 207 203 200 202 205 206 210 210 207 206 204 201 199
237 226 218 212 214 214 213 212 213 216 220 228 235 235 234 234 243 254 267 282 293 299 303 309 311 293 284 268 248 235 224 204 197 207 211 209 208 207 208 207 204 204 203 200
280 249 237 233 227 222 220 216 219 222 223 228 235 234 230 229 234 244 256 268 281 291 299 304 307 303 293 274 255 240 230 220 213 212 211 211 211 210 208 206 205 203 200 198
Height
1562 1565 1564 1565 1563 1560 1560 1562 1563 1563 1559 1557 1553 1548 1544 1539 1533 1529 1525 1522 1519 1516 1514 1511 1509 1508 1508 1507 1507 1507 1507 1508 1509 1509 1510 1510 1511 1511 1512 1513 1513 1514 1514 1515
1562 1564 1563 1563 1564 1563 1563 1564 1562 1559 1558 1558 1554 1550 1546 1542 1539 1535 1532 1529 1526 1523 1520 1517 1515 1513 1512 1511 1510 1509 1509 1509 1509 1509 1509 1510 1510 1510 1510 1510 1510 1511 1511 1511
1557 1561 1561 1562 1567 1567 1566 1566 1564 1563 1563 1559 1554 1552 1549 1546 1543 1540 1537 1535 1532 1529 1526 1524 1521 1519 1517 1515 1514 1513 1511 1511 1510 1510 1509 1509 1508 1508 1508 1508 1507 1507 1507 1507
1556 1559 1564 1567 1567 1568 1567 1566 1565 1563 1561 1559 1556 1554 1552 1550 1547 1544 1541 1539 1536 1534 1531 1529 1526 1524 1522 1520 1518 1516 1514 1513 1512 1511 1510 1509 1508 1507 1506 1505 1505 1504 1504 1504
1555 1555 1561 1565 1565 1566 1565 1564 1564 1562 1560 1558 1555 1552 1552 1551 1549 1547 1545 1542 1540 1537 1535 1533 1530 1528 1527 1524 1522 1520 1518 1516 1515 1514 1512 1510 1509 1508 1506 1505 1504 1503 1502 1502
1555 1554 1557 1559 1564 1566 1567 1561 1563 1563 1561 1559 1554 1549 1554 1553 1550 1548 1546 1544 1542 1540 1538 1536 1533 1531 1530 1528 1526 1523 1522 1520 1518 1516 1514 1512 1511 1509 1507 1506 1504 1503 1502 1501
1554 1553 1553 1559 1564 1567 1564 1560 1563 1563 1562 1560 1558 1558 1558 1554 1552 1550 1548 1546 1545 1543 1541 1539 1536 1535 1533 1531 1529 1527 1525 1523 1521 1519 1517 1514 1513 1511 1509 1507 1505 1504 1502 1501
1554 1555 1558 1559 1562 1562 1559 1561 1562 1563 1562 1562 1561 1559 1557 1555 1553 1551 1549 1548 1546 1545 1543 1541 1539 1537 1535 1533 1531 1529 1527 1525 1523 1521 1519 1516 1514 1513 1511 1509 1507 1505 1504 1503
1551 1553 1555 1558 1559 1560 1561 1562 1562 1563 1562 1562 1561 1559 1557 1556 1554 1552 1550 1549 1547 1546 1545 1543 1541 1539 1537 1535 1533 1531 1529 1527 1525 1523 1520 1518 1516 1515 1513 1511 1509 1507 1506 1505
1551 1551 1555 1557 1558 1560 1561 1562 1562 1562 1562 1561 1560 1559 1557 1556 1554 1552 1551 1549 1548 1547 1546 1544 1542 1540 1538 1536 1534 1533 1531 1529 1527 1525 1523 1521 1518 1516 1514 1513 1511 1510 1508 1507
1547 1549 1553 1554 1556 1558 1560 1561 1562 1562 1562 1561 1560 1559 1557 1556 1554 1552 1550 1549 1547 1546 1545 1544 1542 1541 1539 1537 1536 1535 1533 1531 1529 1527 1525 1523 1520 1518 1516 1515 1513 1512 1511 1509
1540 1543 1546 1548 1552 1555 1558 1559 1561 1561 1561 1561 1560 1558 1557 1555 1553 1551 1550 1548 1547 1546 1544 1543 1542 1540 1539 1537 1536 1535 1534 1532 1530 1529 1527 1525 1523 1521 1519 1518 1516 1515 1514 1512
1540 1542 1545 1547 1550 1553 1556 1558 1559 1560 1560 1560 1559 1558 1556 1554 1553 1551 1549 1548 1546 1545 1543 1542 1541 1540 1538 1537 1536 1535 1534 1533 1531 1530 1529 1527 1526 1525 1523 1521 1520 1518 1517 1515
1539 1541 1544 1546 1549 1552 1554 1556 1558 1559 1559 1558 1558 1557 1555 1554 1552 1550 1549 1547 1545 1544 1542 1541 1540 1539 1538 1536 1536 1535 1534 1533 1532 1531 1530 1529 1528 1526 1525 1524 1523 1522 1520 1518
1537 1540 1543 1545 1548 1550 1553 1555 1556 1557 1558 1558 1557 1556 1554 1553 1551 1549 1547 1546 1544 1543 1542 1541 1539 1538 1537 1536 1535 1535 1534 1534 1533 1532 1531 1530 1529 1528 1527 1526 1525 1524 1523 1522
1535 1538 1541 1543 1546 1548 1551 1553 1554 1556 1556 1556 1556 1555 1553 1552 1550 1548 1546 1545 1543 1542 1541 1540 1539 1538 1536 1536 1535 1534 1534 1533 1533 1533 1532 1532 1531 1530 1529 1529 1528 1527 1525 1524
1532 1535 1538 1541 1544 1546 1548 1550 1552 1553 1554 1554 1554 1553 1552 1551 1549 1548 1545 1544 1542 1541 1540 1539 1538 1537 1536 1535 1535 1534 1534 1533 1533 1533 1533 1533 1532 1532 1531 1530 1530 1528 1527 1526
1529 1533 1536 1539 1541 1543 1546 1547 1549 1550 1551 1551 1551 1551 1550 1549 1548 1546 1544 1542 1541 1540 1539 1538 1537 1536 1535 1535 1534 1534 1534 1534 1534 1534 1533 1533 1533 1533 1532 1532 1531 1530 1528 1527
1527 1531 1534 1537 1539 1541 1543 1545 1546 1547 1548 1548 1549 1549 1548 1547 1546 1544 1543 1541 1540 1539 1538 1537 1536 1535 1534 1534 1533 1533 1534 1533 1533 1534 1533 1533 1533 1533 1533 1532 1532 1531 1530 1528
1524 1528 1532 1534 1536 1539 1541 1542 1543 1544 1545 1546 1546 1546 1546 1545 1544 1542 1541 1540 1538 1537 1536 1535 1534 1534 1533 1533 1533 1533 1533 1533 1533 1533 1533 1533 1533 1533 1533 1532 1532 1531 1530 1529
1521 1525 1528 1531 1534 1536 1538 1539 1540 1542 1542 1543 1544 1544 1544 1543 1542 1540 1539 1538 1537 1535 1534 1533 1533 1532 1532 1532 1532 1532 1532 1532 1532 1532 1532 1532 1532 1532 1532 1532 1531 1531 1530 1529
1518 1522 1525 1528 1531 1533 1535 1536 1538 1539 1540 1540 1541 1541 1541 1540 1540 1538 1537 1536 1534 1533 1532 1531 1531 1530 1530 1530 1530 1530 1530 1530 1531 1531 1531 1531 1531 1531 1532 1531 1531 1530 1529 1528
1515 1518 1522 1525 1528 1530 1532 1533 1534 1536 1537 1538 1538 1538 1538 1538 1537 1536 1535 1534 1532 1531 1530 1529 1528 1528 1528 1528 1528 1529 1529 1529 1529 1529 1529 1529 1529 1530 1530 1530 1530 1529 1528 1527
1511 1515 1518 1522 1525 1527 1528 1530 1531 1532 1534 1534 1535 1535 1535 1535 1534 1534 1532 1531 1530 1528 1527 1526 1526 1526 1526 1526 1526 1527 1527 1527 1527 1527 1527 1527 1528 1528 1528 1528 1528 1527 1527 1526
1508 1511 1514 1517 1520 1522 1524 1526 1528 1529 1530 1531 1532 1532 1532 1532 1531 1531 1530 1528 1527 1526 1525 1524 1523 1523 1523 1523 1524 1524 1525 1525 1525 1525 1525 1525 1525 1525 1526 1526 1526 1525 1525 1524
1505 1507 1510 1512 1515 1518 1520 1522 1523 1524 1526 1527 1527 1528 1528 1528 1528 1527 1527 1526 1525 1523 1522 1521 1520 1520 1520 1520 1521 1521 1522 1522 1522 1522 1522 1523 1523 1522 1523 1523 1523 1523 1523 1522
1503 1504 1506 1508 1510 1512 1514 1516 1518 1519 1521 1522 1523 1524 1524 1524 1524 1524 1523 1523 1522 1521 1520 1519 1518 1517 1517 1517 1517 1518 1518 1519 1520 1520 1520 1520 1520 1520 1520 1520 1520 1520 1520 1520